Beaufort, NC

10:37 PM EDT on August 22, 2019 (GMT -0400)
Smith

Weather History for KMRH - April, 2019

Change the Weather History Date:

Monday, April 15, 2019

  Actual Average Record
Temperature  
Mean Temperature 68 °F -  
Max Temperature 75 °F 71 °F 80 °F (1964)
Min Temperature 57 °F 52 °F 33 °F (1950)
Cooling Degree Days 2    
Growing Degree Days 18 (Base 50)    
Moisture  
Dew Point 56 °F    
Average Humidity 68    
Maximum Humidity 94    
Minimum Humidity 30    
Precipitation  
Precipitation 0.65 in - - ()
Sea Level Pressure  
Sea Level Pressure 29.73 in    
Wind  
Wind Speed 22 mph (WSW)    
Max Wind Speed 40 mph    
Max Gust Speed 60 mph    
Visibility 7 miles    
Events Rain , Thunderstorm    
Averages and records for this station are not official NWS values.
T = Trace of Precipitation, MM = Missing Value Source: NWS Daily Summary

Daily Weather History Graph

Daily Weather History Graph

Search for Another Location

Airport or City:

Astronomy

Apr. 15, 2019 Rise Set
Actual Time 6:35 AM EDT 7:38 PM EDT
Civil Twilight 6:09 AM EDT 8:04 PM EDT
Nautical Twilight 5:38 AM EDT 8:35 PM EDT
Astronomical Twilight 5:06 AM EDT 9:07 PM EDT
Moon 3:32 PM EDT (4/15) 4:23 AM EDT (4/15)
Length of Visible Light 13h 55m
Length of Day
13h 03m
Waxing Gibbous, 81% of the Moon is Illuminated
Apr 15
Waxing Gibbous
Apr 19
Full
Apr 26
Last Quarter
May 4
New
May 11
First Quarter

Hourly Weather History & Observations

Time (EDT) Temp. Dew Point Humidity Pressure Visibility Wind Dir Wind Speed Gust Speed Precip Events Conditions
12:21 AM 73.0 °F 69.1 °F 87% 29.70 in 8.0 mi South 20.7 mph 28.8 mph N/A   Mostly Cloudy
12:58 AM 73.0 °F 69.1 °F 87% 29.68 in 8.0 mi South 20.7 mph 33.4 mph N/A   Scattered Clouds
1:58 AM 73.0 °F 69.1 °F 87% 29.65 in 8.0 mi South 20.7 mph 32.2 mph N/A   Scattered Clouds
2:58 AM 73.0 °F 69.1 °F 87% 29.63 in 7.0 mi SSW 23.0 mph 29.9 mph N/A   Overcast
3:58 AM 72.0 °F 68.0 °F 87% 29.60 in 7.0 mi South 19.6 mph 29.9 mph N/A   Overcast
4:27 AM 72.0 °F 69.1 °F 91% 29.59 in 1.8 mi SSW 26.5 mph 36.8 mph 0.16 in Rain Heavy Rain
4:34 AM 71.1 °F 69.1 °F 93% 29.61 in 1.0 mi SW 40.3 mph 59.8 mph 0.31 in Rain Heavy Rain
4:36 AM 70.0 °F 66.9 °F 90% 29.62 in 1.0 mi WSW 33.4 mph 59.8 mph 0.36 in Rain , Thunderstorm Heavy Rain
4:39 AM 66.9 °F 64.9 °F 93% 29.62 in 1.0 mi SW 29.9 mph 59.8 mph 0.42 in Rain , Thunderstorm Heavy Rain
4:43 AM 66.0 °F 64.0 °F 93% 29.62 in 0.8 mi SW 32.2 mph 59.8 mph 0.49 in Rain , Thunderstorm Heavy Thunderstorms and Rain
4:46 AM 64.9 °F 63.0 °F 93% 29.64 in 1.2 mi SSW 31.1 mph 41.4 mph 0.52 in Rain , Thunderstorm Heavy Thunderstorms and Rain
4:54 AM 62.6 °F 60.8 °F 94% 29.62 in 2.0 mi SW 27.6 mph 43.7 mph 0.58 in Rain , Thunderstorm Heavy Thunderstorms and Rain
4:58 AM 63.0 °F 61.0 °F 93% 29.62 in 2.5 mi SSW 25.3 mph 43.7 mph 0.59 in Rain , Thunderstorm Heavy Thunderstorms and Rain
5:06 AM 64.9 °F 63.0 °F 93% 29.62 in 4.0 mi SW 25.3 mph 32.2 mph 0.01 in Rain , Thunderstorm Light Rain
5:16 AM 66.0 °F 64.0 °F 93% 29.61 in 7.0 mi SSW 23.0 mph 34.5 mph 0.01 in Rain Light Rain
5:58 AM 68.0 °F 64.9 °F 90% 29.61 in 6.0 mi SW 18.4 mph 31.1 mph 0.04 in Rain Light Rain
6:58 AM 68.0 °F 64.9 °F 90% 29.63 in 8.0 mi SW 19.6 mph - 0.02 in   Overcast
7:58 AM 68.0 °F 63.0 °F 84% 29.65 in 10.0 mi WSW 15.0 mph 24.2 mph N/A   Clear
8:58 AM 69.1 °F 55.9 °F 63% 29.67 in 10.0 mi WSW 20.7 mph 32.2 mph N/A   Clear
9:58 AM 70.0 °F 52.0 °F 53% 29.70 in 10.0 mi West 21.9 mph - N/A   Clear
10:58 AM 71.1 °F 54.0 °F 55% 29.72 in 10.0 mi West 19.6 mph - N/A   Clear
11:58 AM 73.0 °F 55.0 °F 53% 29.74 in 10.0 mi WNW 19.6 mph 26.5 mph N/A   Partly Cloudy
12:58 PM 73.9 °F 51.1 °F 45% 29.74 in 10.0 mi WNW 20.7 mph 25.3 mph N/A   Clear
1:58 PM 75.0 °F 48.9 °F 40% 29.76 in 10.0 mi WNW 20.7 mph 26.5 mph N/A   Clear
2:58 PM 75.0 °F 45.0 °F 34% 29.77 in 10.0 mi NW 20.7 mph 26.5 mph N/A   Clear
3:58 PM 75.0 °F 44.1 °F 33% 29.76 in 10.0 mi WNW 13.8 mph - N/A   Clear
4:58 PM 73.9 °F 41.0 °F 30% 29.79 in 10.0 mi WNW 20.7 mph 26.5 mph N/A   Clear
5:58 PM 73.0 °F 39.9 °F 30% 29.83 in 10.0 mi NW 16.1 mph 27.6 mph N/A   Clear
6:58 PM 70.0 °F 41.0 °F 35% 29.88 in 10.0 mi NNW 17.3 mph - N/A   Clear
7:58 PM 66.9 °F 43.0 °F 42% 29.91 in 10.0 mi NNW 11.5 mph - N/A   Clear
8:58 PM 63.0 °F 44.1 °F 50% 29.97 in 10.0 mi NNW 8.1 mph - N/A   Clear
9:58 PM 62.1 °F 37.0 °F 39% 30.01 in 10.0 mi North 10.4 mph - N/A   Clear
10:58 PM 60.1 °F 37.0 °F 42% 30.04 in 10.0 mi North 13.8 mph - N/A   Clear
11:58 PM 57.9 °F 37.9 °F 47% 30.06 in 10.0 mi North 9.2 mph - N/A   Clear